Location: Beaurecueil
(43.5122°N, 5.5450°E)
Time: 04:33:05
(UTC+00:00)

Meteor 1-21 - Pass Details

Date: 27 June 2021
Orbit: 846 x 885 km, 81.2° (Epoch: 03 August)

Event Time Altitude Azimuth Distance (km) Brightness Sun altitude
Rises 20:29:00 0° 238° (WSW) 3,412 7.5 -10.0°
Reaches altitude 10° 20:32:26 10° 259° (W) 2,476 7.1 -10.4°
Maximum altitude 20:35:47 16° 297° (WNW) 2,078 7.3 -10.8°
Drops below altitude 10° 20:39:10 10° 334° (NNW) 2,479 8.0 -11.2°
Sets 20:42:38 0° 356° (N) 3,419 8.3 -11.7°
